GW1675 Weather Reports


time (UTC)temp
F
wind
direction
speed
knots
gust
knots
rain 1hr
in
rain 24hr
in
rain mn
in
humidity
%
barometer
mb
20260502231545 0 0.0 0.0 0.00 0.00 0.00 1018.3
20260502230046 61 0.0 0.0 0.00 0.00 0.00 76 1018.2
20260502224544 61 178 0.9 3.5 0.00 0.00 0.00 76 1018.2
20260502223044 61 178 1.7 3.5 0.00 0.00 0.00 76 1018.0
20260502221541 61 178 1.7 2.6 0.00 0.00 0.00 76 1018.1
20260502220048 62 178 1.7 4.3 0.00 0.00 0.00 75 1018.2
20260502214552 62 178 2.6 3.5 0.00 0.00 0.00 75 1018.3
20260502213047 62 178 0.9 3.5 0.00 0.00 0.00 75 1018.2
20260502211547 62 178 1.7 4.3 0.00 0.00 0.00 74 1017.9
20260502210043 63 178 1.7 4.3 0.00 0.00 0.00 74 1017.9
20260502204602 63 178 2.6 5.2 0.00 0.00 0.00 74 1017.8
20260502203108 63 178 1.7 5.2 0.00 0.00 0.00 73 1017.7
20260502201545 63 178 1.7 4.3 0.00 0.00 0.00 73 1017.5
20260502200045 64 178 2.6 5.2 0.00 0.00 0.00 73 1017.5
20260502194544 64 178 1.7 6.1 0.00 0.00 0.00 72 1017.4
20260502193041 65 178 2.6 9.6 0.00 0.00 0.00 72 1017.1
20260502191556 65 178 3.5 8.7 0.00 0.00 0.00 72 1017.1
20260502190047 66 177 4.3 9.6 0.00 0.00 0.00 71 1017.2
20260502184545 67 178 6.1 10.4 0.00 0.00 0.00 71 1017.1
20260502183044 68 176 6.1 10.4 0.00 0.00 0.00 71 1017.1
20260502181603 68 176 6.1 10.4 0.00 0.00 0.00 71 1017.2
20260502163050 70 163 7.8 13.0 0.00 0.00 0.00 71 1017.5
20260502161549 71 158 7.0 13.0 0.00 0.00 0.00 71 1017.3
20260502151600 70 145 7.0 10.4 0.00 0.00 0.00 72 1018.0
20260502123045 69 138 5.2 7.0 0.00 0.00 0.00 73 1019.4
20260502121544 68 138 2.6 5.2 0.00 0.00 0.00 73 1019.5
20260502114550 67 162 3.5 7.0 0.00 0.00 0.00 73 1019.8
20260502113043 67 162 2.6 7.8 0.00 0.00 0.00 73 1019.8
20260502111544 68 163 7.0 10.4 0.00 0.00 0.00 74 1020.0
20260502110046 68 162 5.2 7.8 0.00 0.00 0.00 74 1020.1
20260502104551 68 163 0.9 6.1 0.00 0.00 0.00 74 1020.3
20260502103047 66 162 1.7 6.1 0.00 0.00 0.00 74 1020.3
20260502101549 66 162 1.7 4.3 0.00 0.00 0.00 74 1020.4
20260502070044 60 0 0.0 0.0 0.00 0.00 0.00 73 1019.8
20260502064558 59 0 0.0 0.0 0.00 0.00 0.00 72 1019.7
20260502063045 60 0 0.0 0.0 0.00 0.00 0.00 72 1019.6
20260502061547 60 0 0.0 0.0 0.00 0.00 0.00 72 1019.3
20260502060048 60 0 0.0 0.9 0.00 0.00 0.00 72 1019.5
20260502054558 60 0 0.0 0.0 0.00 0.00 0.00 72 1019.5
20260502053046 60 0 0.0 0.0 0.00 0.00 0.00 72 1019.4
20260502051544 61 0 0.0 0.0 0.00 0.00 0.00 72 1019.1
20260502050051 61 0 0.0 0.0 0.00 0.00 0.00 72 1019.2
20260502044550 61 0 0.0 0.0 0.00 0.00 0.00 72 1019.4
20260502043050 61 0 0.0 0.0 0.00 0.00 0.00 72 1019.4
20260502041546 60 0 0.0 0.0 0.00 0.00 0.00 72 1019.3
20260502040054 61 0 0.0 0.0 0.00 0.00 0.00 72 1019.4
20260502034544 61 0 0.0 0.0 0.00 0.00 0.00 72 1019.2
20260502033048 61 0 0.0 0.0 0.00 0.00 0.00 71 1019.4
20260502031555 61 0 0.0 0.0 0.00 0.00 0.00 71 1019.4
20260502030043 61 0 0.0 0.0 0.00 0.00 0.00 71 1019.4
20260502024545 61 0 0.0 0.0 0.00 0.00 0.00 71 1019.5
20260502023049 61 0 0.0 0.0 0.00 0.00 0.00 71 1019.5
20260502021544 61 0 0.0 0.0 0.00 0.00 0.00 71 1019.5
20260502020108 61 0 0.0 0.0 0.00 0.00 0.00 71 1019.8
20260502014551 61 0 0.0 0.0 0.00 0.00 0.00 71 1019.9
20260502013044 61 0 0.0 0.0 0.00 0.00 0.00 71 1019.8
20260502011551 61 0 0.0 0.0 0.00 0.00 0.00 71 1020.0
20260502010044 61 162 0.9 1.7 0.00 0.00 0.00 71 1020.0
20260502004547 62 0 0.0 0.0 0.00 0.00 0.00 71 1020.0
20260502003049 62 0 0.0 0.0 0.00 0.00 0.00 71 1020.4
20260502001622 62 0 0.0 0.0 0.00 0.00 0.00 71 1020.4
20260502000044 62 0 0.0 0.0 0.00 0.00 0.00 71 1020.5
20260501234545 62 0 0.0 0.0 0.00 0.00 0.00 71 1020.6
20260501233050 62 0 0.0 0.0 0.00 0.00 0.00 71 1020.8